Total_Precipitation_Accumulation
2.00 2.02 2.03 2.10 2.22 2.28 2.38 2.64 2.87 2.76 2.46 2.23 2.17 2.09 2.02 2.08 2.25 1.98 1.86 1.82 1.65 1.57 1.55 1.52 1.56 1.65 1.75 1.74 1.74 1.85 1.95 2.11 2.34 2.53 2.71 2.93 3.10 3.24
1.83 1.82 1.79 1.82 1.94 1.96 2.04 2.21 2.51 2.72 2.53 2.11 2.05 2.00 2.02 1.91 2.14 1.90 1.87 1.87 1.58 1.39 1.32 1.30 1.32 1.39 1.44 1.47 1.49 1.53 1.62 1.73 1.91 2.12 2.33 2.55 2.75 2.96
1.65 1.67 1.68 1.76 1.87 1.83 1.87 1.99 2.16 2.39 2.55 2.29 2.12 2.05 2.03 2.05 2.06 1.90 1.77 1.67 1.52 1.42 1.24 1.16 1.16 1.23 1.23 1.24 1.32 1.38 1.42 1.50 1.68 1.87 2.08 2.30 2.48 2.61
1.53 1.59 1.59 1.64 1.73 1.77 1.86 1.96 2.08 2.27 2.40 2.45 2.29 2.14 2.06 2.03 2.06 1.99 1.72 1.54 1.47 1.48 1.28 1.15 1.06 1.04 1.12 1.12 1.14 1.24 1.34 1.42 1.52 1.66 1.82 1.99 2.13 2.24
1.43 1.49 1.53 1.61 1.62 1.67 1.74 1.81 1.94 2.03 2.23 2.33 2.22 2.13 2.06 1.96 2.11 1.95 1.81 1.90 1.54 1.41 1.29 1.18 1.09 1.05 1.26 1.30 1.10 1.10 1.17 1.30 1.36 1.45 1.61 1.73 1.83 1.89
1.23 1.34 1.42 1.50 1.52 1.61 1.62 1.70 1.80 1.99 2.17 2.24 2.09 1.97 1.92 1.95 2.08 2.07 1.97 1.88 1.71 1.37 1.34 1.27 1.18 1.18 1.48 1.99 1.50 1.20 1.18 1.26 1.34 1.38 1.43 1.46 1.48 1.52
1.14 1.19 1.24 1.29 1.31 1.33 1.30 1.46 1.66 1.85 1.97 2.06 1.99 1.94 1.89 2.02 2.02 1.95 1.90 1.88 1.73 1.51 1.49 1.37 1.48 1.72 2.20 2.80 2.32 1.71 1.48 1.37 1.32 1.37 1.38 1.35 1.30 1.25
1.19 1.19 1.09 1.08 1.05 0.98 1.02 1.14 1.36 1.62 1.88 2.00 1.94 1.93 1.91 1.99 2.08 2.05 2.02 2.07 2.01 1.67 1.60 1.52 1.71 2.48 3.09 3.36 2.89 2.06 1.75 1.52 1.40 1.45 1.51 1.45 1.29 1.18
1.19 1.18 0.98 0.90 1.01 1.01 1.04 1.05 1.13 1.28 1.56 1.86 1.95 1.85 1.90 2.02 2.20 2.24 2.18 2.17 2.11 1.85 1.87 1.81 1.96 2.75 2.97 3.09 2.93 2.14 1.82 1.66 1.61 1.68 1.70 1.52 1.32 1.18
0.93 1.02 1.10 1.10 1.02 1.05 1.06 1.16 1.23 1.33 1.41 1.55 1.77 1.74 1.72 1.89 2.11 2.13 2.11 2.07 2.00 1.87 1.89 1.99 2.12 2.60 2.54 2.63 2.67 2.14 1.84 1.71 1.67 1.70 1.65 1.45 1.29 1.18
0.77 0.84 0.90 0.94 0.93 0.99 1.09 1.29 1.36 1.47 1.43 1.59 1.61 1.53 1.54 1.61 1.63 1.77 2.06 2.25 2.15 1.86 1.74 1.86 2.01 2.30 2.35 2.39 2.25 2.05 1.86 1.75 1.65 1.61 1.54 1.32 1.20 1.16
0.84 0.90 0.85 0.75 0.79 0.90 1.11 1.37 1.55 1.60 1.63 1.74 1.71 1.68 1.58 1.55 1.50 1.59 1.97 2.26 2.25 2.02 1.71 1.74 1.86 2.06 2.30 2.23 2.02 1.86 1.88 1.91 1.82 1.73 1.55 1.28 1.08 1.02
0.83 0.91 0.91 0.76 0.69 0.75 0.97 1.21 1.40 1.47 1.70 1.95 1.81 1.65 1.60 1.57 1.54 1.55 1.76 1.94 1.95 1.84 1.59 1.71 1.89 1.98 2.11 2.13 2.04 2.00 1.89 1.85 1.85 1.92 1.81 1.48 1.17 0.97
0.86 0.89 0.89 0.84 0.77 0.84 0.98 1.14 1.27 1.47 1.69 1.83 1.64 1.48 1.39 1.38 1.43 1.40 1.40 1.43 1.52 1.51 1.47 1.63 1.92 2.10 2.11 2.00 2.06 2.04 2.00 1.96 1.92 1.94 1.93 1.76 1.44 1.22
0.76 0.85 0.83 0.79 0.87 1.08 1.21 1.31 1.46 1.69 1.75 1.62 1.50 1.37 1.27 1.31 1.31 1.30 1.29 1.34 1.33 1.21 1.16 1.33 1.65 1.89 2.05 2.02 2.01 2.00 2.07 2.20 2.15 2.11 2.05 1.86 1.62 1.40
0.74 0.89 0.95 0.95 1.09 1.27 1.41 1.50 1.62 1.71 1.58 1.45 1.39 1.29 1.19 1.26 1.32 1.27 1.38 1.43 1.44 1.34 1.24 1.26 1.44 1.72 1.87 1.87 1.98 2.05 2.08 2.40 2.44 2.25 2.21 2.15 1.88 1.62
0.74 0.91 1.05 1.09 1.19 1.33 1.45 1.51 1.57 1.58 1.51 1.38 1.32 1.26 1.19 1.19 1.17 1.13 1.26 1.36 1.41 1.40 1.37 1.33 1.37 1.49 1.61 1.71 1.89 1.99 2.11 2.34 2.43 2.24 2.17 2.26 2.10 1.79
0.80 1.06 1.14 1.13 1.16 1.23 1.34 1.45 1.45 1.44 1.41 1.43 1.42 1.38 1.31 1.21 1.17 1.12 1.15 1.24 1.34 1.32 1.33 1.32 1.31 1.35 1.47 1.56 1.70 1.80 1.85 2.05 2.11 2.00 1.83 1.92 2.08 1.86
0.82 1.04 1.15 1.18 1.20 1.22 1.25 1.31 1.37 1.38 1.33 1.36 1.39 1.33 1.23 1.15 1.12 1.13 1.14 1.22 1.26 1.20 1.14 1.10 1.14 1.23 1.38 1.62 1.70 1.69 1.71 1.75 1.76 1.77 1.66 1.59 1.72 1.71
0.80 0.99 1.10 1.15 1.19 1.23 1.23 1.21 1.26 1.32 1.28 1.23 1.28 1.26 1.19 1.14 1.15 1.16 1.16 1.13 1.15 1.09 1.06 1.00 1.00 1.11 1.27 1.47 1.76 1.87 1.63 1.45 1.43 1.53 1.54 1.51 1.62 1.63
0.77 0.88 0.98 1.06 1.07 1.09 1.14 1.17 1.21 1.25 1.20 1.17 1.21 1.23 1.21 1.18 1.12 1.04 1.00 0.91 0.97 1.02 1.01 1.02 0.99 0.95 0.95 1.09 1.35 1.59 1.63 1.48 1.34 1.34 1.34 1.43 1.47 1.38
0.70 0.80 0.90 0.93 0.94 0.90 0.93 0.97 1.01 1.03 1.04 1.08 1.13 1.11 1.05 1.02 0.95 0.90 0.89 0.90 0.94 0.97 0.95 0.90 0.87 0.88 0.93 1.08 1.24 1.38 1.46 1.33 1.22 1.20 1.18 1.14 1.13 1.18
0.77 0.79 0.83 0.84 0.84 0.82 0.81 0.80 0.84 0.89 0.92 0.94 1.01 0.99 0.93 0.89 0.85 0.79 0.77 0.77 0.79 0.80 0.82 0.86 0.89 0.90 0.92 0.95 0.99 1.08 1.14 1.15 1.08 1.05 1.13 1.12 1.02 1.06